Tracking 17145 objects as of 29-May-2015
HD Live streaming from Space Station

AMC-4 (GE-4)

Track AMC-4 (GE-4) now!
AMC-4 (GE-4) is classified as:


NORAD ID: 25954
Int'l Code: 1999-060A
Perigee: 35,781.3 km
Apogee: 35,805.9 km
Inclination: 0.0 °
Period: 1,436.1 minutes
Semi major axis: 42164 km
RCS: 18.9697 m2 (large)
Launch date: November 13, 1999
Source: SOCIETE EUROPEENNE DES SATELLITES (SES)

Broadcasting, cable, internet; CONUS, Canada, Mexico, Caribbean, Central America, South America; 28 Ku- and 24 C-band
Your satellite tracking list
Your tracking list is empty





NASA's NSSDC Master Catalog

Two Line Element Set (TLE):
1 25954U 99060A   15149.38746669 -.00000272  00000-0  10000-3 0  9994
2 25954 000.0485 065.3521 0002916 014.1497 239.5843 01.00272301 57002

Source of the keplerian elements: AFSPC

N2YO: 367